| time (UTC) | temp F | wind direction | speed knots | gust knots | rain 1hr in | rain 24hr in | rain mn in | humidity % | barometer mb |
| 20260903070021 | 65 | 217 | 4.3 | 0.0 | 0.00 | 0.00 | 0.06 | 100 | 1014.3 |
| 20260903064527 | 64 | 215 | 5.2 | 0.0 | 0.00 | 0.00 | 0.06 | 100 | 1014.3 |
| 20260903063015 | 64 | 202 | 4.3 | 0.0 | 0.00 | 0.00 | 0.06 | 100 | 1014.3 |
| 20260903061517 | 64 | 212 | 3.5 | 0.0 | 0.00 | 0.00 | 0.06 | 100 | 1014.3 |
| 20260903060014 | 64 | 247 | 3.5 | 0.0 | 0.00 | 0.00 | 0.06 | 100 | 1014.2 |
| 20260903054505 | 64 | 201 | 3.5 | 0.0 | 0.00 | 0.00 | 0.06 | 100 | 1014.3 |
| 20260903053101 | 63 | 233 | 3.5 | 0.0 | 0.00 | 0.00 | 0.06 | 100 | 1014.6 |
| 20260903051603 | 63 | 194 | 4.3 | 0.0 | 0.00 | 0.00 | 0.06 | 100 | 1015.1 |
| 20260903050052 | 64 | 191 | 4.3 | 0.0 | 0.00 | 0.00 | 0.05 | 100 | 1016.0 |
| 20260903044547 | 64 | 219 | 2.6 | 0.0 | 0.00 | 0.00 | 0.02 | 100 | 1016.0 |
| 20260903043045 | 64 | 171 | 4.3 | 0.0 | 0.00 | 0.00 | 0.01 | 100 | 1015.1 |
| 20260903041543 | 64 | 201 | 4.3 | 0.0 | 0.00 | 0.00 | 0.01 | 100 | 1015.3 |
| 20260903040035 | 63 | 193 | 4.3 | 0.0 | 0.00 | 0.00 | 0.00 | 100 | 1014.7 |
| 20260903034540 | 64 | 192 | 3.5 | 0.0 | 0.00 | 0.00 | 0.42 | 100 | 1016.0 |
| 20260903033027 | 64 | 195 | 2.6 | 0.0 | 0.00 | 0.00 | 0.38 | 100 | 1017.0 |
| 20260903031522 | 64 | 203 | 3.5 | 0.0 | 0.00 | 0.00 | 0.31 | 100 | 1016.8 |
| 20260903030019 | 64 | 200 | 4.3 | 0.0 | 0.00 | 0.00 | 0.26 | 100 | 1017.1 |
| 20260903024516 | 64 | 212 | 2.6 | 0.0 | 0.00 | 0.00 | 0.22 | 100 | 1016.8 |
| 20260903023011 | 65 | 183 | 3.5 | 0.0 | 0.00 | 0.00 | 0.20 | 100 | 1016.5 |
| 20260903021509 | 65 | 173 | 4.3 | 0.0 | 0.00 | 0.00 | 0.20 | 100 | 1017.0 |
| 20260903020005 | 65 | 178 | 5.2 | 0.0 | 0.00 | 0.00 | 0.20 | 100 | 1017.0 |
| 20260903014503 | 65 | 190 | 3.5 | 0.0 | 0.00 | 0.00 | 0.20 | 100 | 1017.1 |
| 20260903013100 | 65 | 140 | 2.6 | 0.0 | 0.00 | 0.00 | 0.20 | 100 | 1017.5 |
| 20260903011603 | 65 | 202 | 3.5 | 0.0 | 0.00 | 0.00 | 0.20 | 100 | 1017.7 |
| 20260903010051 | 65 | 195 | 2.6 | 0.0 | 0.00 | 0.00 | 0.20 | 100 | 1017.4 |
| 20260903004544 | 65 | 200 | 2.6 | 0.0 | 0.00 | 0.00 | 0.20 | 100 | 1017.5 |
| 20260903003039 | 65 | 184 | 4.3 | 0.0 | 0.00 | 0.00 | 0.20 | 100 | 1017.6 |
| 20260903001535 | 65 | 158 | 5.2 | 0.0 | 0.00 | 0.00 | 0.20 | 100 | 1017.2 |
| 20260903000031 | 65 | 188 | 6.1 | 0.0 | 0.00 | 0.00 | 0.20 | 100 | 1017.0 |
| 20260902234529 | 65 | 186 | 7.8 | 0.0 | 0.00 | 0.00 | 0.20 | 100 | 1016.2 |
| 20260902233025 | 66 | 137 | 4.3 | 0.0 | 0.00 | 0.00 | 0.20 | 100 | 1016.2 |
| 20260902231520 | 67 | 131 | 2.6 | 0.0 | 0.00 | 0.00 | 0.20 | 100 | 1017.0 |
| 20260902230015 | 67 | 188 | 1.7 | 0.0 | 0.00 | 0.00 | 0.20 | 100 | 1017.2 |
| 20260902224515 | 68 | 186 | 0.9 | 0.0 | 0.00 | 0.00 | 0.20 | 100 | 1017.2 |
| 20260902223010 | 68 | 182 | 2.6 | 0.0 | 0.00 | 0.00 | 0.20 | 100 | 1017.3 |
| 20260902221507 | 68 | 172 | 1.7 | 0.0 | 0.00 | 0.00 | 0.20 | 100 | 1017.7 |
| 20260902220001 | 69 | 169 | 2.6 | 0.0 | 0.00 | 0.00 | 0.20 | 100 | 1017.6 |
| 20260902214600 | 69 | 176 | 0.9 | 0.0 | 0.00 | 0.00 | 0.20 | 100 | 1017.6 |
| 20260902213055 | 69 | 207 | 2.6 | 0.0 | 0.00 | 0.00 | 0.20 | 100 | 1017.5 |
| 20260902211552 | 70 | 179 | 0.9 | 0.0 | 0.00 | 0.00 | 0.20 | 100 | 1017.6 |
| 20260902210047 | 70 | 180 | 1.7 | 0.0 | 0.00 | 0.00 | 0.20 | 2 | 1018.1 |
| 20260902204544 | 71 | 186 | 1.7 | 0.0 | 0.00 | 0.00 | 0.20 | 11 | 1018.0 |
| 20260902203038 | 73 | 199 | 0.9 | 0.0 | 0.00 | 0.00 | 0.20 | 18 | 1017.8 |
| 20260902201537 | 73 | 191 | 2.6 | 0.0 | 0.00 | 0.00 | 0.20 | 22 | 1017.7 |
| 20260902200032 | 73 | 223 | 2.6 | 0.0 | 0.00 | 0.00 | 0.20 | 21 | 1018.0 |
| 20260902194530 | 73 | 189 | 3.5 | 0.0 | 0.00 | 0.00 | 0.20 | 16 | 1017.9 |
| 20260902193024 | 72 | 209 | 1.7 | 0.0 | 0.00 | 0.00 | 0.20 | 7 | 1017.9 |
| 20260902191519 | 70 | 197 | 1.7 | 0.0 | 0.00 | 0.00 | 0.20 | 100 | 1017.8 |
| 20260902190019 | 69 | 227 | 1.7 | 0.0 | 0.00 | 0.00 | 0.20 | 100 | 1017.9 |
| 20260902184515 | 67 | 211 | 2.6 | 0.0 | 0.00 | 0.00 | 0.20 | 100 | 1018.0 |
| 20260902183010 | 67 | 215 | 2.6 | 0.0 | 0.00 | 0.00 | 0.20 | 100 | 1018.2 |
| 20260902181506 | 67 | 196 | 2.6 | 0.0 | 0.00 | 0.00 | 0.20 | 100 | 1018.4 |
| 20260902180001 | 67 | 207 | 2.6 | 0.0 | 0.00 | 0.00 | 0.20 | 100 | 1018.4 |
| 20260902174557 | 67 | 198 | 0.0 | 0.0 | 0.00 | 0.00 | 0.20 | 100 | 1018.5 |
| 20260902173053 | 67 | 196 | 0.0 | 0.0 | 0.00 | 0.00 | 0.20 | 100 | 1018.5 |
| 20260902171603 | 66 | 196 | 0.0 | 0.0 | 0.00 | 0.00 | 0.19 | 100 | 1019.1 |
| 20260902170047 | 66 | 196 | 1.7 | 0.0 | 0.00 | 0.00 | 0.16 | 100 | 1019.4 |
| 20260902164540 | 67 | 203 | 2.6 | 0.0 | 0.00 | 0.00 | 0.11 | 100 | 1020.5 |
| 20260902163036 | 68 | 236 | 2.6 | 0.0 | 0.00 | 0.00 | 0.01 | 100 | 1020.8 |
| 20260902161532 | 68 | 97 | 0.0 | 0.0 | 0.00 | 0.00 | 0.00 | 100 | 1019.5 |
| 20260902160027 | 68 | 82 | 0.0 | 0.0 | 0.00 | 0.00 | 0.00 | 100 | 1019.1 |
| 20260902154521 | 68 | 80 | 0.0 | 0.0 | 0.00 | 0.00 | 0.00 | 100 | 1019.2 |
| 20260902153020 | 69 | 135 | 0.9 | 0.0 | 0.00 | 0.00 | 0.00 | 100 | 1019.2 |
| 20260902151513 | 69 | 143 | 0.0 | 0.0 | 0.00 | 0.00 | 0.00 | 100 | 1019.1 |
| 20260902150014 | 70 | 169 | 0.9 | 0.0 | 0.00 | 0.00 | 0.00 | 100 | 1019.2 |
| 20260902144510 | 70 | 175 | 0.9 | 0.0 | 0.00 | 0.00 | 0.00 | 100 | 1019.0 |
| 20260902143008 | 70 | 177 | 0.0 | 0.0 | 0.00 | 0.00 | 0.00 | 100 | 1019.1 |
| 20260902141501 | 69 | 186 | 2.6 | 0.0 | 0.00 | 0.00 | 0.00 | 100 | 1019.3 |
| 20260902140058 | 68 | 186 | 2.6 | 0.0 | 0.00 | 0.00 | 0.00 | 100 | 1019.5 |
| 20260902134557 | 68 | 64 | 0.0 | 0.0 | 0.00 | 0.00 | 0.00 | 100 | 1019.1 |
| 20260902133104 | 67 | 64 | 0.0 | 0.0 | 0.00 | 0.00 | 0.00 | 100 | 1019.1 |
| 20260902131550 | 66 | 63 | 0.9 | 0.0 | 0.00 | 0.00 | 0.00 | 100 | 1019.1 |
| 20260902130044 | 66 | 62 | 0.9 | 0.0 | 0.00 | 0.00 | 0.00 | 100 | 1019.2 |
| 20260902124537 | 66 | 63 | 0.0 | 0.0 | 0.00 | 0.00 | 0.00 | 100 | 1018.9 |
| 20260902123035 | 65 | 63 | 0.0 | 0.0 | 0.00 | 0.00 | 0.00 | 100 | 1018.9 |
| 20260902121528 | 65 | 63 | 0.0 | 0.0 | 0.00 | 0.00 | 0.00 | 100 | 1018.7 |
| 20260902120030 | 65 | 63 | 1.7 | 0.0 | 0.00 | 0.00 | 0.00 | 100 | 1018.5 |
| 20260902114519 | 65 | 63 | 0.0 | 0.0 | 0.00 | 0.00 | 0.00 | 100 | 1018.4 |
| 20260902113015 | 0 | 0.0 | 0.0 | 0.00 | 0.00 | 0.00 | 1018.5 | ||
| 20260902111532 | 0 | 0.0 | 0.0 | 0.00 | 0.00 | 0.00 | 1018.5 | ||
| 20260902110019 | 0 | 0.0 | 0.0 | 0.00 | 0.00 | 0.00 | 1018.9 | ||
| 20260902104502 | 0 | 0.0 | 0.0 | 0.00 | 0.00 | 0.00 | 1019.3 | ||
| 20260902103057 | 64 | 63 | 0.9 | 0.0 | 0.00 | 0.00 | 0.00 | 100 | 1019.0 |
| 20260902101553 | 64 | 61 | 0.9 | 0.0 | 0.00 | 0.00 | 0.00 | 100 | 1019.0 |
| 20260902100049 | 64 | 61 | 0.0 | 0.0 | 0.00 | 0.00 | 0.00 | 100 | 1018.8 |
| 20260902094551 | 64 | 60 | 0.0 | 0.0 | 0.00 | 0.00 | 0.00 | 100 | 1018.7 |
| 20260902093044 | 64 | 60 | 0.0 | 0.0 | 0.00 | 0.00 | 0.00 | 100 | 1018.7 |
| 20260902091539 | 64 | 60 | 0.0 | 0.0 | 0.00 | 0.00 | 0.00 | 100 | 1018.6 |
| 20260902090034 | 64 | 61 | 0.9 | 0.0 | 0.00 | 0.00 | 0.00 | 100 | 1018.5 |
| 20260902084539 | 64 | 61 | 1.7 | 0.0 | 0.00 | 0.00 | 0.00 | 100 | 1018.2 |
| 20260902083027 | 64 | 58 | 0.9 | 0.0 | 0.00 | 0.00 | 0.00 | 100 | 1018.2 |
| 20260902081522 | 64 | 60 | 1.7 | 0.0 | 0.00 | 0.00 | 0.00 | 100 | 1017.9 |
| 20260902080019 | 64 | 65 | 0.9 | 0.0 | 0.00 | 0.00 | 0.00 | 100 | 1018.0 |
| 20260902074516 | 65 | 64 | 2.6 | 0.0 | 0.00 | 0.00 | 0.00 | 100 | 1017.6 |
| 20260902073011 | 65 | 71 | 2.6 | 0.0 | 0.00 | 0.00 | 0.00 | 100 | 1017.9 |
| 20260902071507 | 65 | 72 | 1.7 | 0.0 | 0.00 | 0.00 | 0.00 | 100 | 1018.1 |